Weather Roundup
Issued by NWS Chicago, IL

Home | Current Version | Previous Version | Text Only | Print | Product List | Glossary Off
Versions: 1 2 3 4 5 6 7 8 9 10 11 12 13 14 15 16 17 18 19 20 21 22 23 24 25 26 27 28 29 30 31 32 33 34 35 36 37 38 39 40 41 42 43 44 45 46 47 48 49 50

000
NZUS59 KLOT 260103
HRRLOT

CHICAGO AREA WEATHER ROUNDUP
NATIONAL WEATHER SERVICE CHICAGO/ROMEOVILLE IL
800 PM CDT MON JUL 25 2016

NOTE: "FAIR" INDICATES FEW OR NO CLOUDS BELOW 12,000 FEET WITH NO
SIGNIFICANT WEATHER AND/OR OBSTRUCTIONS TO VISIBILITY.

* THESE STATIONS ARE NOT UNDER NWS QUALITY CONTROL. THEY ALSO MAY NOT
  REPORT WEATHER SUCH AS PRECIPITATION OR FOG.

ILZ005-006-012>014-019>023-260200-
NORTHEAST ILLINOIS

CITY           SKY/WX    TMP DP  RH WIND       PRES   REMARKS
OHARE          PTCLDY    81  63  54 E6        29.98S HX  82
MIDWAY         CLOUDY    82  61  48 E7        29.98S HX  83
AURORA         CLOUDY    79  71  76 W5        30.00S HX  82
LANSING*       CLOUDY    79  62  56 E6        29.99S HX  80
WAUKEGAN       CLEAR     77  62  59 SE3       29.99R
DUPAGE AIRPORT CLOUDY    80  65  59 NW6       29.99S HX  82
WHEELING       PTCLDY    81  64  56 E3        30.00R HX  82
KANKAKEE*      CLOUDY    80  71  73 CALM      30.00R HX  83
MORRIS*        MOCLDY    78  73  84 CALM      29.98S HX  80
NORTHERLY ISL    N/A     75  68  78 CALM        N/A
$$

WIZ051-052-058>065-066-070>072-260200-
SOUTHEAST WISCONSIN

CITY           SKY/WX    TMP DP  RH WIND       PRES   REMARKS
MILWAUKEE      PTCLDY    80  62  54 SE5       29.99R HX  81
KENOSHA*       CLEAR     78  62  57 SE6       30.01R HX  80
RACINE*        CLEAR     78  63  59 S5        30.01R HX  80
BURLINGTON     CLEAR     77  66  68 CALM      30.00S
WAUKESHA       CLEAR     77  61  57 NW9       30.02R
$$

INZ001>003-010>013-019-020-260200-
NORTHWEST INDIANA

CITY           SKY/WX    TMP DP  RH WIND       PRES   REMARKS
GARY*          MOCLDY    79  64  61 E5        29.99S HX  81
MICHIGAN CITY* NOT AVBL
RENSSELAER*    NOT AVBL
VALPARAISO     MOCLDY    76  71  85 CALM      30.01R
$$

LMZ740>746-260200-
SOUTHERN LAKE MICHIGAN

STATION/POSITION TIME  SKY/WX   TEMP WIND        PRES    VSBY
                                AIR  DIR/SP/G
                 (UTC)          (F)  (DEG/KT/KT) (MB)    (MI)
HARRISON CRIB    0000            80  120/  7/  8   N/A
BURNHAM HARBOR   0100            74   CALM  /  3   N/A
CALUMET HARBOR   0000            76                N/A
BURNS HARBOR     0000            79   80/  6/ 11 1015.9S
MICHIGAN CITY    0000            78   20/  6/  6   N/A
$$

ABBREVIATIONS USED IN REMARKS
   TC - TEMPERATURE IN CELSIUS
  WCI - WIND CHILL INDEX
   HX - HEAT INDEX
  VSB - VISIBILITY
$$



USA.gov is the U.S. government's official web portal to all federal, state and local government web resources and services.